Regional Weather Roundup
Issued by NWS Memphis, TN

Home | Current Version | Previous Version | Text Only | Print | Product List | Glossary On
Versions: 1 2 3 4 5 6 7 8 9 10 11 12 13 14 15 16 17 18 19 20 21 22 23 24 25 26 27 28 29 30 31 32 33 34 35 36 37 38 39 40 41 42 43 44 45 46 47 48 49 50
000
ASUS44 KMEG 012110
RWRMEG
MEMPHIS CWA HOURLY WEATHER ROUNDUP
NATIONAL WEATHER SERVICE MEMPHIS TN
400 PM CDT MON SEP 01 2014

...WEST TENNESSEE...

CITY           SKY/WX    TMP DP  RH WIND       PRES   REMARKS
MEMPHIS INTL   MOSUNNY   91  69  48 S9        29.98F HX  96
NWS MEMPHIS      N/A     92 N/A N/A MISG        N/A
JACKSON        SUNNY     89  72  56 SW10      29.98F HX  96
LEXINGTON      MOSUNNY   90  70  51 SW14      29.99F HX  95
SAVANNAH       SUNNY     90  70  51 SW10      30.01F HX  95
DYERSBURG      MOSUNNY   90  66  45 SW13G21   29.96F HX  92
UNION CITY     SUNNY     84  73  70 S10       29.92F HX  91
PARIS          MOSUNNY   84  72  65 SW14      29.97F
HUNTINGDON     MOSUNNY   87  71  58 SW9       29.97F HX  92


...EASTERN ARKANSAS...

CITY           SKY/WX    TMP DP  RH WIND       PRES   REMARKS
JONESBORO      MOSUNNY   89  71  55 S20       29.93F HX  95
WEST MEMPHIS   MOSUNNY   90  75  61 S12       29.95F HX 100
BATESVILLE     PTSUNNY   91  70  49 SW12G21   29.93F HX  97
NEWPORT        MOSUNNY   91  72  53 S16G23    29.95F HX  98
WALNUT RIDGE   MOSUNNY   90  57  33 S20G26    29.90F
BLYTHEVILLE    MOSUNNY   90  74  59 SW14G20   29.95F HX  99
SEARCY         MOSUNNY   91  73  55 W13       29.95F HX  99
STUTTGART      SUNNY     91  73  55 S13       29.97F HX 100
PINE BLUFF     SUNNY     89  71  55 S13       29.96F HX  95
MONTICELLO     MOSUNNY   89  74  60 S8        29.97F HX  98


...NORTH MISSISSIPPI...

CITY           SKY/WX    TMP DP  RH WIND       PRES   REMARKS
TUPELO         MOSUNNY   93  68  43 W9        30.01F HX  97
OLIVE BRANCH   PTSUNNY   90  75  62 S12       29.99F HX 100
CLARKSDALE     MOSUNNY   90  73  58 S13       29.98F HX  98
CORINTH        MOSUNNY   90  68  48 SW9G15    30.00F HX  93
GRENADA        MOSUNNY   90  70  51 S9        30.00F HX  95
GREENWOOD      MOSUNNY   91  72  53 S8        30.00F HX  98
COLUMBUS       SUNNY     92  70  48 VRB3      30.02F HX  97
STARKVILLE     FAIR      91  64  40 S5        30.02F HX  93
GOLDEN TRIANGL MOSUNNY   90  70  51 S3        30.06R HX  95


...SOUTHEAST MISSOURI...

CITY           SKY/WX    TMP DP  RH WIND       PRES   REMARKS
WEST PLAINS    MOSUNNY   84  66  54 S15G25    29.95F
POPLAR BLUFF   PTSUNNY   86  71  60 SW18G25   29.90F HX  91
CAPE GIRARDEAU CLOUDY    86  74  67 SW15G23   29.92R HX  94


...NORTHWEST ALABAMA...

CITY           SKY/WX    TMP DP  RH WIND       PRES   REMARKS
MUSCLE SHOALS  SUNNY     91  68  46 SW10G16   30.04F HX  95


...MIDDLE TENNESSEE...

CITY           SKY/WX    TMP DP  RH WIND       PRES   REMARKS
NASHVILLE      PTSUNNY   89  68  49 W8        30.01F HX  93
CLARKSVILLE    PTSUNNY   85  72  65 SW14      29.96F HX  91
DICKSON        PTSUNNY   88  70  55 SW9       30.01F HX  92
COLUMBIA         N/A     91  70  49 SW13      30.01F HX  97
LEWISBURG      PTSUNNY   92  66  42 SW9       30.03F HX  94


...WESTERN KENTUCKY...

CITY           SKY/WX    TMP DP  RH WIND       PRES   REMARKS
PADUCAH        CLOUDY    86  72  62 SW9G22    29.90R HX  92
FORT CAMPBELL  PTSUNNY   85  73  65 SW18      29.96F HAZE    HX  92


...CENTRAL ARKANSAS...

CITY           SKY/WX    TMP DP  RH WIND       PRES   REMARKS
LITTLE ROCK    MOSUNNY   91  69  48 S12G22    29.94F HX  96


SKY/WX REPORTED AS FAIR MEANS FEW OR NO CLOUDS BELOW
12 THOUSAND FEET.




USA.gov is the U.S. government's official web portal to all federal, state and local government web resources and services.